sat.trackr.live / text

‹ back to catalog

2025-012B

NORAD 62726 · 2025-012B

PAYLOAD ACTIVE UNKNOWN

§ Identity

Operator
Country
PRC
Launch date
2025-01-17
Launch site
JSC
Launch vehicle
Mass (kg)
RCS (m²)

External: N2YO · Heavens-Above · Gunter

§ Orbital elements

Epoch: 2026-05-25T04:12:43.000416Z

Period
94.68 min
Inclination
97.4237°
Eccentricity
0.0008829
Mean motion
15.20968628 rev/d
Perigee alt
496.8 km
Apogee alt
509.0 km
Semi-major
6,881.1 km
B*
2.0049e-4
RAAN
218.5704°
Arg perigee
8.0784°
Mean anomaly
352.0592°
Rev number
7,475

§ Raw data

2025-012B1 62726U 25012B   26145.17549769  .00004376  00000+0  20049-3 0  99962 62726  97.4237 218.5704 0008829   8.0784 352.0592 15.20968628 74754

JSON: /api/v1/satellites/62726 · /tle

For live sub-satellite position, see the globe view (requires WebGL).

§ Visibility from observer

Set your observer location to see the next 7 days of passes ≥ 10°. The values pass through the URL so the page stays shareable.

No JS? Fill the form by hand. The geolocation button needs JavaScript.

§ Radio — SatNOGS DB

ModeDescriptionDownlinkUplink
FM S-band telemetry 2.238 GHz

1 transmitter · refreshed weekly from db.satnogs.org